Zurück zum Katalog

ATLAS 5 CENTAUR DEB

LostHEO
NORAD 46654·DEBRIS·🇺🇸 United States

Gestartet Sep 17, 2014 von Cape Canaveral Space Force Station

Loading…

Nächste Überflüge (nächste 24 Stunden)

TLE

VeraltetSource: Space-Track

Epoche: May 31, 2026, 23:38 UTC

1 46654U 14055DD  26151.98487863  .00000150  00000-0  00000-0 0  9994
2 46654  20.7676  82.0062 5156537 275.5750  30.3827  1.96050936 40473

Verfolge ATLAS 5 CENTAUR DEB in Echtzeit mit AllMySat

Download on the App Store